Fairfield, IA

1:17 PM CDT on May 28, 2017 (GMT -0500)
Fairfield Municipal

Weather History for KFFL - March, 2013

Change the Weather History Date:

Saturday, March 9, 2013

  Actual Average Record
Temperature  
Mean Temperature 38 °F -  
Max Temperature 44 °F 47 °F 72 °F (1986)
Min Temperature 35 °F 24 °F -1 °F (1978)
Degree Days  
Heating Degree Days 26    
Moisture  
Dew Point 35 °F    
Average Humidity 88    
Maximum Humidity 93    
Minimum Humidity 81    
Precipitation  
Precipitation 1.54 in - - ()
Sea Level Pressure  
Sea Level Pressure 29.90 in    
Wind  
Wind Speed 13 mph (SE)    
Max Wind Speed 20 mph    
Max Gust Speed 26 mph    
Visibility 4 miles    
Events Rain    
Averages and records for this station are not official NWS values.
T = Trace of Precipitation, MM = Missing Value Source: NWS Daily Summary

Daily Weather History Graph

Daily Weather History Graph

Search for Another Location

Airport or City:

Trip Planner

Search our weather history database for the weather conditions in past years. The results will help you decide how hot, cold, wet, or windy it might be!

Date:

Astronomy

Mar. 09, 2013 Rise Set
Actual Time 6:29 AM CST 6:08 PM CST
Civil Twilight 6:01 AM CST 6:35 PM CST
Nautical Twilight 5:29 AM CST 7:07 PM CST
Astronomical Twilight 4:57 AM CST 7:39 PM CST
Moon 4:54 AM CST (3/9) 4:10 PM CST (3/9)
Length of Visible Light 12h 34m
Length of Day
11h 39m
Waning Crescent, 5% of the Moon is Illuminated
Mar 9
Waning Crescent
Mar 11
New
Mar 19
First Quarter
Mar 27
Full
Apr 2
Last Quarter

Hourly Weather History & Observations

Time (CST) Temp. Windchill Dew Point Humidity Pressure Visibility Wind Dir Wind Speed Gust Speed Precip Events Conditions
12:15 AM 37.4 °F 29.8 °F 32.0 °F 81% 30.12 in 10.0 mi ESE 11.5 mph - N/A   Mostly Cloudy
12:35 AM 37.4 °F 30.3 °F 32.0 °F 81% 30.11 in 10.0 mi ESE 10.4 mph - N/A   Mostly Cloudy
12:55 AM 37.4 °F 28.9 °F 32.0 °F 81% 30.10 in 10.0 mi SE 13.8 mph - N/A   Scattered Clouds
1:15 AM 37.4 °F 29.3 °F 32.0 °F 81% 30.10 in 10.0 mi SE 12.7 mph - N/A   Mostly Cloudy
1:35 AM 37.4 °F 28.2 °F 32.0 °F 81% 30.10 in 10.0 mi SE 16.1 mph - N/A   Mostly Cloudy
1:55 AM 37.4 °F 28.9 °F 32.0 °F 81% 30.09 in 10.0 mi SE 13.8 mph - N/A   Overcast
2:15 AM 37.4 °F 29.3 °F 32.0 °F 81% 30.09 in 4.0 mi SE 12.7 mph - 0.02 in Rain Rain
2:35 AM 35.6 °F 27.1 °F 32.0 °F 87% 30.08 in 7.0 mi SE 12.7 mph - 0.07 in Rain Light Rain
2:55 AM 35.6 °F 27.1 °F 32.0 °F 87% 30.07 in 4.0 mi SE 12.7 mph - 0.09 in Rain Rain
3:15 AM 35.6 °F 27.1 °F 32.0 °F 87% 30.06 in 5.0 mi SE 12.7 mph - 0.02 in Rain Light Rain
3:35 AM 35.6 °F 25.9 °F 32.0 °F 87% 30.05 in 4.0 mi SE 16.1 mph - 0.05 in Rain Rain
3:55 AM 37.4 °F 28.5 °F 33.8 °F 87% 30.05 in 5.0 mi SSE 15.0 mph - 0.08 in Rain Rain
4:15 AM 35.6 °F 26.2 °F 33.8 °F 93% 30.03 in 5.0 mi SE 15.0 mph - 0.01 in Rain Light Rain
4:35 AM 35.6 °F 27.5 °F 33.8 °F 93% 30.04 in 3.0 mi SE 11.5 mph - 0.04 in Rain Rain
4:55 AM 35.6 °F 28.0 °F 32.0 °F 87% 30.04 in 2.0 mi SE 10.4 mph - 0.08 in Rain Rain
5:15 AM 35.6 °F 27.5 °F 33.8 °F 93% 30.04 in 1.8 mi SE 11.5 mph - 0.09 in Rain Heavy Rain
5:35 AM 35.6 °F 25.9 °F 33.8 °F 93% 30.03 in 2.0 mi SE 16.1 mph - 0.17 in Rain Heavy Rain
5:55 AM 35.6 °F 26.2 °F 33.8 °F 93% 30.03 in 2.0 mi SE 15.0 mph - 0.19 in Rain Rain
6:15 AM 35.6 °F 27.1 °F 33.8 °F 93% 30.02 in 2.0 mi SE 12.7 mph - 0.01 in Rain Light Rain
6:35 AM 35.6 °F 25.9 °F 33.8 °F 93% 30.02 in 3.0 mi SE 16.1 mph 20.7 mph 0.03 in Rain Light Rain
6:55 AM 35.6 °F 26.2 °F 33.8 °F 93% 30.01 in 4.0 mi SE 15.0 mph - 0.06 in Rain Light Rain
7:15 AM 35.6 °F 25.9 °F 33.8 °F 93% 30.01 in 3.0 mi SE 16.1 mph 23.0 mph N/A   Overcast
7:35 AM 35.6 °F 25.9 °F 33.8 °F 93% 30.00 in 4.0 mi SE 16.1 mph 23.0 mph 0.01 in   Overcast
7:55 AM 37.4 °F 27.2 °F 33.8 °F 87% 29.99 in 4.0 mi SE 19.6 mph 23.0 mph 0.01 in   Overcast
8:15 AM 37.4 °F 27.8 °F 33.8 °F 87% 30.00 in 4.0 mi SE 17.3 mph 24.2 mph N/A   Overcast
8:35 AM 37.4 °F 27.5 °F 33.8 °F 87% 29.98 in 4.0 mi SE 18.4 mph 21.9 mph N/A   Overcast
8:55 AM 35.6 °F 25.9 °F 33.8 °F 93% 29.97 in 3.0 mi SE 16.1 mph - N/A   Overcast
9:15 AM 35.6 °F 25.9 °F 33.8 °F 93% 29.97 in 2.5 mi SE 16.1 mph - N/A Rain Light Rain
9:35 AM 35.6 °F 26.6 °F 33.8 °F 93% 29.96 in 2.5 mi SE 13.8 mph - N/A Rain Light Rain
9:55 AM 35.6 °F 25.9 °F 33.8 °F 93% 29.94 in 2.5 mi SE 16.1 mph - 0.03 in Rain Rain
10:15 AM 37.4 °F 28.2 °F 33.8 °F 87% 29.94 in 3.0 mi SSE 16.1 mph - N/A   Overcast
10:35 AM 37.4 °F 27.5 °F 33.8 °F 87% 29.92 in 2.0 mi SE 18.4 mph 24.2 mph N/A   Overcast
10:55 AM 37.4 °F 27.5 °F 33.8 °F 87% 29.92 in 1.5 mi SSE 18.4 mph 26.5 mph 0.05 in Rain Rain
11:15 AM 37.4 °F 27.8 °F 33.8 °F 87% 29.90 in 4.0 mi SE 17.3 mph - 0.05 in Rain Light Rain
11:35 AM 37.4 °F 28.5 °F 33.8 °F 87% 29.90 in 3.0 mi SE 15.0 mph - 0.07 in Rain Light Rain
11:55 AM 37.4 °F 28.2 °F 33.8 °F 87% 29.89 in 2.5 mi SE 16.1 mph - 0.07 in   Drizzle
12:15 PM 37.4 °F 28.5 °F 33.8 °F 87% 29.88 in 4.0 mi SE 15.0 mph - N/A   Overcast
12:35 PM 37.4 °F 28.9 °F 35.6 °F 93% 29.86 in 4.0 mi SE 13.8 mph - N/A   Overcast
12:55 PM 37.4 °F 29.3 °F 35.6 °F 93% 29.85 in 4.0 mi SE 12.7 mph 18.4 mph N/A   Overcast
1:15 PM 37.4 °F 29.8 °F 35.6 °F 93% 29.83 in 4.0 mi SE 11.5 mph - N/A   Overcast
1:35 PM 37.4 °F 29.3 °F 35.6 °F 93% 29.82 in 4.0 mi SE 12.7 mph - N/A Rain Light Rain
1:55 PM 39.2 °F 31.6 °F 35.6 °F 87% 29.81 in 4.0 mi SSE 12.7 mph - N/A   Overcast
2:15 PM 39.2 °F 31.6 °F 35.6 °F 87% 29.80 in 5.0 mi SE 12.7 mph - N/A   Overcast
2:35 PM 39.2 °F 31.2 °F 37.4 °F 93% 29.78 in 5.0 mi SE 13.8 mph - N/A   Overcast
2:55 PM 39.2 °F 32.5 °F 35.6 °F 87% 29.79 in 5.0 mi SSE 10.4 mph - N/A   Overcast
3:15 PM 39.2 °F 33.0 °F 35.6 °F 87% 29.78 in 7.0 mi SSE 9.2 mph - N/A   Overcast
3:35 PM 39.2 °F 32.0 °F 35.6 °F 87% 29.77 in 7.0 mi SSE 11.5 mph - N/A   Overcast
3:55 PM 39.2 °F 33.0 °F 35.6 °F 87% 29.78 in 7.0 mi SSE 9.2 mph - N/A   Overcast
4:15 PM 39.2 °F 33.0 °F 35.6 °F 87% 29.78 in 7.0 mi SSE 9.2 mph - N/A   Drizzle
4:35 PM 39.2 °F 35.0 °F 35.6 °F 87% 29.78 in 7.0 mi South 5.8 mph - 0.01 in Rain Light Rain
4:55 PM 39.2 °F - 35.6 °F 87% 29.79 in 5.0 mi Calm Calm - 0.01 in   Drizzle
5:15 PM 39.2 °F 35.0 °F 35.6 °F 87% 29.78 in 3.0 mi SE 5.8 mph - N/A   Drizzle
5:35 PM 39.2 °F 34.2 °F 35.6 °F 87% 29.77 in 3.0 mi SE 6.9 mph - 0.01 in Rain Rain
5:55 PM 39.2 °F 33.6 °F 35.6 °F 87% 29.78 in 4.0 mi SE 8.1 mph - 0.03 in Rain Light Rain
6:15 PM 37.4 °F 31.4 °F 35.6 °F 93% 29.77 in 4.0 mi SE 8.1 mph - 0.01 in Rain Light Rain
6:35 PM 39.2 °F 34.2 °F 35.6 °F 87% 29.76 in 5.0 mi ESE 6.9 mph - 0.02 in Rain Light Rain
6:55 PM 39.2 °F 35.9 °F 35.6 °F 87% 29.77 in 5.0 mi SE 4.6 mph - 0.04 in Rain Light Rain
7:15 PM 37.4 °F 32.1 °F 35.6 °F 93% 29.76 in 4.0 mi ESE 6.9 mph - 0.02 in Rain Rain
7:35 PM 39.2 °F - 35.6 °F 87% 29.77 in 3.0 mi Calm Calm - 0.04 in Rain Rain
7:55 PM 39.2 °F 35.9 °F 35.6 °F 87% 29.79 in 2.5 mi South 4.6 mph - 0.08 in Rain Rain
8:15 PM 39.2 °F 35.0 °F 35.6 °F 87% 29.77 in 2.5 mi SE 5.8 mph - 0.07 in Rain Rain
8:35 PM 39.2 °F 33.0 °F 37.4 °F 93% 29.76 in 2.5 mi SE 9.2 mph - 0.16 in Rain Heavy Rain
8:55 PM 41.0 °F 34.7 °F 37.4 °F 87% 29.75 in 3.0 mi SE 10.4 mph - 0.25 in Rain Rain
9:15 PM 41.0 °F 35.8 °F 37.4 °F 87% 29.75 in 2.5 mi SE 8.1 mph - 0.10 in Rain Heavy Rain
9:35 PM 41.0 °F 36.4 °F 37.4 °F 87% 29.74 in 4.0 mi SE 6.9 mph - 0.16 in Rain Heavy Rain
9:55 PM 39.2 °F 33.0 °F 37.4 °F 93% 29.75 in 4.0 mi SE 9.2 mph - 0.20 in Rain Rain
10:15 PM 41.0 °F 34.7 °F 37.4 °F 87% 29.74 in 4.0 mi SE 10.4 mph - 0.07 in Rain Rain
10:35 PM 41.0 °F 34.3 °F 37.4 °F 87% 29.74 in 4.0 mi SE 11.5 mph - 0.11 in Rain Rain
10:55 PM 41.0 °F 34.3 °F 37.4 °F 87% 29.74 in 5.0 mi SE 11.5 mph - 0.13 in Rain Rain
11:15 PM 42.8 °F 36.6 °F 39.2 °F 87% 29.72 in 4.0 mi SE 11.5 mph - 0.05 in Rain Rain
11:35 PM 42.8 °F 35.8 °F 39.2 °F 87% 29.73 in 5.0 mi SE 13.8 mph - 0.09 in Rain Rain
11:55 PM 44.6 °F 37.8 °F 41.0 °F 87% 29.71 in 5.0 mi SSE 15.0 mph - 0.14 in Rain Rain